| time (UTC) | temp F | wind direction | speed MPH | gust MPH | rain 1hr in | rain 24hr in | rain mn in | humidity % | barometer mb |
| 20260507031055 | 43 | 199 | 3.0 | 3.0 | 0.00 | 0.63 | 0.63 | 95 | 1011.1 |
| 20260507030551 | 43 | 172 | 1.0 | 1.0 | 0.00 | 0.63 | 0.63 | 95 | 1011.0 |
| 20260507030050 | 43 | 211 | 3.0 | 3.0 | 0.00 | 0.63 | 0.63 | 95 | 1011.0 |
| 20260507025546 | 43 | 181 | 1.0 | 2.0 | 0.00 | 0.63 | 0.63 | 95 | 1010.7 |
| 20260507025044 | 43 | 169 | 0.0 | 0.0 | 0.00 | 0.63 | 0.63 | 95 | 1010.9 |
| 20260507024542 | 43 | 176 | 1.0 | 1.0 | 0.00 | 0.63 | 0.63 | 95 | 1010.9 |
| 20260507024038 | 43 | 174 | 1.0 | 1.0 | 0.00 | 0.63 | 0.63 | 95 | 1011.1 |
| 20260507023534 | 43 | 167 | 0.0 | 1.0 | 0.00 | 0.63 | 0.63 | 95 | 1011.1 |
| 20260507023032 | 43 | 165 | 0.0 | 0.0 | 0.00 | 0.63 | 0.63 | 95 | 1011.0 |
| 20260507022528 | 43 | 188 | 2.0 | 2.0 | 0.00 | 0.63 | 0.63 | 95 | 1011.1 |
| 20260507022023 | 43 | 172 | 0.0 | 0.0 | 0.00 | 0.63 | 0.63 | 95 | 1011.2 |
| 20260507021519 | 43 | 172 | 0.0 | 0.0 | 0.00 | 0.63 | 0.63 | 95 | 1011.2 |
| 20260507021016 | 43 | 171 | 0.0 | 0.0 | 0.00 | 0.63 | 0.63 | 95 | 1011.1 |
| 20260507020514 | 43 | 167 | 0.0 | 0.0 | 0.00 | 0.63 | 0.63 | 95 | 1011.2 |
| 20260507020010 | 43 | 163 | 0.0 | 0.0 | 0.00 | 0.63 | 0.63 | 95 | 1011.0 |
| 20260507015509 | 43 | 168 | 0.0 | 0.0 | 0.00 | 0.63 | 0.63 | 95 | 1011.1 |
| 20260507015006 | 43 | 171 | 0.0 | 1.0 | 0.00 | 0.63 | 0.63 | 95 | 1011.2 |
| 20260507014502 | 43 | 169 | 0.0 | 1.0 | 0.00 | 0.63 | 0.63 | 95 | 1011.2 |
| 20260507013958 | 43 | 163 | 0.0 | 0.0 | 0.00 | 0.63 | 0.63 | 95 | 1010.9 |
| 20260507013455 | 43 | 163 | 0.0 | 0.0 | 0.00 | 0.63 | 0.63 | 95 | 1011.3 |
| 20260507012952 | 43 | 170 | 0.0 | 0.0 | 0.00 | 0.63 | 0.63 | 95 | 1011.3 |
| 20260507012449 | 43 | 162 | 0.0 | 0.0 | 0.00 | 0.63 | 0.63 | 95 | 1011.0 |
| 20260507011945 | 42 | 171 | 0.0 | 0.0 | 0.00 | 0.63 | 0.63 | 95 | 1010.9 |
| 20260507011443 | 42 | 161 | 0.0 | 0.0 | 0.00 | 0.63 | 0.63 | 95 | 1010.9 |
| 20260507010938 | 42 | 159 | 0.0 | 0.0 | 0.00 | 0.63 | 0.63 | 95 | 1011.0 |
| 20260507010433 | 43 | 159 | 0.0 | 0.0 | 0.00 | 0.63 | 0.63 | 95 | 1010.8 |
| 20260507005930 | 42 | 160 | 0.0 | 0.0 | 0.00 | 0.63 | 0.63 | 95 | 1010.9 |
| 20260507005427 | 42 | 160 | 0.0 | 0.0 | 0.00 | 0.63 | 0.63 | 95 | 1010.9 |
| 20260507004923 | 42 | 166 | 0.0 | 0.0 | 0.00 | 0.63 | 0.63 | 95 | 1010.8 |
| 20260507004420 | 42 | 161 | 0.0 | 0.0 | 0.00 | 0.63 | 0.63 | 95 | 1010.5 |
| 20260507003918 | 42 | 161 | 0.0 | 0.0 | 0.00 | 0.63 | 0.63 | 95 | 1010.5 |
| 20260507003413 | 42 | 162 | 0.0 | 0.0 | 0.00 | 0.63 | 0.63 | 95 | 1010.5 |
| 20260507002908 | 42 | 164 | 0.0 | 0.0 | 0.00 | 0.63 | 0.63 | 95 | 1010.8 |
| 20260507002405 | 43 | 166 | 0.0 | 0.0 | 0.00 | 0.63 | 0.63 | 95 | 1010.7 |
| 20260507001902 | 43 | 162 | 0.0 | 0.0 | 0.00 | 0.63 | 0.63 | 95 | 1010.4 |
| 20260507001359 | 43 | 168 | 0.0 | 0.0 | 0.00 | 0.63 | 0.63 | 95 | 1010.5 |
| 20260507000856 | 43 | 174 | 1.0 | 1.0 | 0.00 | 0.63 | 0.63 | 95 | 1010.2 |
| 20260507000351 | 43 | 161 | 0.0 | 0.0 | 0.00 | 0.63 | 0.63 | 95 | 1010.5 |
| 20260506235847 | 43 | 163 | 0.0 | 0.0 | 0.00 | 0.63 | 0.63 | 95 | 1010.4 |
| 20260506235345 | 43 | 172 | 0.0 | 1.0 | 0.00 | 0.63 | 0.63 | 95 | 1010.2 |
| 20260506234840 | 43 | 186 | 1.0 | 1.0 | 0.00 | 0.63 | 0.63 | 95 | 1010.0 |
| 20260506234338 | 43 | 175 | 0.0 | 0.0 | 0.00 | 0.63 | 0.63 | 95 | 1010.1 |
| 20260506233836 | 43 | 188 | 1.0 | 1.0 | 0.00 | 0.63 | 0.63 | 95 | 1010.3 |
| 20260506233331 | 43 | 172 | 0.0 | 1.0 | 0.00 | 0.63 | 0.63 | 95 | 1010.0 |
| 20260506232829 | 43 | 173 | 0.0 | 0.0 | 0.00 | 0.63 | 0.63 | 95 | 1009.8 |
| 20260506232324 | 43 | 172 | 0.0 | 0.0 | 0.00 | 0.63 | 0.63 | 95 | 1010.0 |
| 20260506231821 | 43 | 169 | 0.0 | 1.0 | 0.00 | 0.63 | 0.63 | 95 | 1009.9 |
| 20260506231319 | 43 | 180 | 1.0 | 1.0 | 0.00 | 0.63 | 0.63 | 95 | 1009.7 |
| 20260506230816 | 43 | 160 | 0.0 | 0.0 | 0.00 | 0.63 | 0.63 | 95 | 1009.2 |
| 20260506230313 | 43 | 159 | 0.0 | 0.0 | 0.00 | 0.63 | 0.63 | 96 | 1009.4 |
| 20260506225809 | 43 | 158 | 0.0 | 0.0 | 0.00 | 0.63 | 0.63 | 96 | 1009.2 |
| 20260506225306 | 43 | 159 | 0.0 | 0.0 | 0.00 | 0.63 | 0.63 | 96 | 1009.3 |
| 20260506224803 | 43 | 159 | 0.0 | 0.0 | 0.00 | 0.63 | 0.63 | 96 | 1009.5 |
| 20260506224300 | 43 | 159 | 0.0 | 0.0 | 0.00 | 0.63 | 0.63 | 96 | 1009.3 |
| 20260506223756 | 43 | 164 | 0.0 | 0.0 | 0.00 | 0.63 | 0.63 | 96 | 1009.6 |
| 20260506223251 | 43 | 168 | 0.0 | 0.0 | 0.00 | 0.63 | 0.63 | 96 | 1009.5 |
| 20260506222749 | 43 | 157 | 0.0 | 0.0 | 0.00 | 0.63 | 0.63 | 96 | 1009.7 |
| 20260506222244 | 43 | 161 | 0.0 | 0.0 | 0.00 | 0.63 | 0.63 | 96 | 1009.7 |
| 20260506221742 | 43 | 159 | 0.0 | 0.0 | 0.00 | 0.63 | 0.63 | 96 | 1009.6 |
| 20260506221240 | 42 | 170 | 0.0 | 0.0 | 0.00 | 0.63 | 0.63 | 97 | 1009.7 |
| 20260506220737 | 43 | 181 | 0.0 | 1.0 | 0.00 | 0.63 | 0.63 | 97 | 1009.9 |
| 20260506220232 | 43 | 183 | 1.0 | 1.0 | 0.00 | 0.63 | 0.63 | 97 | 1010.0 |
| 20260506215729 | 43 | 186 | 1.0 | 1.0 | 0.00 | 0.63 | 0.63 | 97 | 1009.6 |
| 20260506215224 | 43 | 177 | 1.0 | 1.0 | 0.00 | 0.63 | 0.63 | 97 | 1009.7 |
| 20260506214721 | 43 | 178 | 1.0 | 1.0 | 0.00 | 0.63 | 0.63 | 97 | 1009.9 |
| 20260506214218 | 42 | 176 | 1.0 | 1.0 | 0.00 | 0.63 | 0.63 | 97 | 1009.7 |
| 20260506213717 | 42 | 192 | 1.0 | 1.0 | 0.00 | 0.63 | 0.63 | 97 | 1009.5 |
| 20260506213214 | 43 | 189 | 1.0 | 1.0 | 0.00 | 0.63 | 0.63 | 97 | 1009.3 |
| 20260506212711 | 43 | 166 | 0.0 | 0.0 | 0.00 | 0.63 | 0.63 | 97 | 1009.5 |
| 20260506212206 | 43 | 176 | 0.0 | 1.0 | 0.00 | 0.63 | 0.63 | 97 | 1009.4 |
| 20260506211702 | 42 | 192 | 1.0 | 1.0 | 0.00 | 0.63 | 0.63 | 97 | 1009.5 |
| 20260506211158 | 43 | 188 | 1.0 | 1.0 | 0.00 | 0.63 | 0.63 | 97 | 1009.3 |
| 20260506210655 | 43 | 169 | 0.0 | 0.0 | 0.00 | 0.63 | 0.63 | 97 | 1009.4 |
| 20260506210152 | 42 | 157 | 1.0 | 1.0 | 0.00 | 0.63 | 0.63 | 97 | 1009.4 |
| 20260506205649 | 42 | 190 | 1.0 | 1.0 | 0.00 | 0.63 | 0.63 | 97 | 1009.6 |
| 20260506205144 | 42 | 248 | 2.0 | 2.0 | 0.00 | 0.63 | 0.63 | 97 | 1009.4 |
| 20260506204642 | 42 | 182 | 1.0 | 1.0 | 0.00 | 0.63 | 0.63 | 97 | 1009.3 |
| 20260506204138 | 42 | 168 | 1.0 | 1.0 | 0.00 | 0.63 | 0.63 | 97 | 1009.2 |
| 20260506203637 | 42 | 237 | 2.0 | 2.0 | 0.00 | 0.63 | 0.63 | 97 | 1009.3 |
| 20260506203133 | 42 | 190 | 2.0 | 2.0 | 0.00 | 0.63 | 0.63 | 97 | 1009.1 |
| 20260506202632 | 43 | 198 | 2.0 | 2.0 | 0.00 | 0.63 | 0.63 | 97 | 1009.1 |
| 20260506202127 | 43 | 186 | 1.0 | 1.0 | 0.00 | 0.63 | 0.63 | 97 | 1009.2 |
| 20260506201625 | 43 | 198 | 2.0 | 2.0 | 0.00 | 0.63 | 0.63 | 97 | 1008.9 |
| 20260506201121 | 42 | 188 | 1.0 | 1.0 | 0.00 | 0.63 | 0.63 | 97 | 1008.9 |
| 20260506200618 | 42 | 214 | 3.0 | 3.0 | 0.00 | 0.63 | 0.63 | 97 | 1008.8 |
| 20260506200114 | 43 | 164 | 1.0 | 2.0 | 0.00 | 0.63 | 0.63 | 97 | 1008.7 |
| 20260506195611 | 43 | 141 | 0.0 | 0.0 | 0.00 | 0.63 | 0.63 | 97 | 1008.7 |
| 20260506195107 | 42 | 161 | 0.0 | 0.0 | 0.00 | 0.63 | 0.63 | 97 | 1008.8 |
| 20260506194605 | 43 | 200 | 2.0 | 2.0 | 0.00 | 0.63 | 0.63 | 97 | 1009.0 |
| 20260506194101 | 43 | 249 | 2.0 | 2.0 | 0.00 | 0.63 | 0.63 | 97 | 1008.9 |
| 20260506193559 | 43 | 193 | 1.0 | 2.0 | 0.00 | 0.63 | 0.63 | 97 | 1009.0 |
| 20260506193056 | 43 | 161 | 2.0 | 2.0 | 0.00 | 0.63 | 0.63 | 97 | 1008.9 |
| 20260506192553 | 43 | 199 | 2.0 | 2.0 | 0.00 | 0.63 | 0.63 | 97 | 1008.9 |
| 20260506192049 | 43 | 239 | 2.0 | 2.0 | 0.00 | 0.63 | 0.63 | 97 | 1008.7 |
| 20260506191545 | 43 | 194 | 1.0 | 2.0 | 0.00 | 0.63 | 0.63 | 97 | 1008.9 |
| 20260506191041 | 43 | 236 | 3.0 | 3.0 | 0.07 | 0.63 | 0.63 | 97 | 1008.6 |
| 20260506190539 | 43 | 199 | 1.0 | 2.0 | 0.07 | 0.63 | 0.63 | 97 | 1008.7 |
| 20260506190036 | 43 | 142 | 0.0 | 1.0 | 0.00 | 0.62 | 0.62 | 97 | 1008.5 |
| 20260506185533 | 43 | 223 | 2.0 | 2.0 | 0.00 | 0.62 | 0.62 | 97 | 1008.6 |
| 20260506185029 | 43 | 151 | 0.0 | 1.0 | 0.00 | 0.62 | 0.62 | 97 | 1008.5 |
| 20260506184527 | 43 | 185 | 2.0 | 2.0 | 0.00 | 0.62 | 0.62 | 97 | 1008.6 |
| 20260506184024 | 43 | 186 | 3.0 | 3.0 | 0.00 | 0.62 | 0.62 | 97 | 1008.8 |
| 20260506183520 | 43 | 180 | 3.0 | 3.0 | 0.00 | 0.62 | 0.62 | 97 | 1008.5 |
| 20260506183017 | 43 | 209 | 1.0 | 1.0 | 0.00 | 0.62 | 0.62 | 97 | 1008.3 |
| 20260506182514 | 43 | 193 | 3.0 | 3.0 | 0.00 | 0.62 | 0.62 | 97 | 1008.3 |
| 20260506182011 | 43 | 201 | 1.0 | 2.0 | 0.00 | 0.62 | 0.62 | 97 | 1008.2 |
| 20260506181509 | 43 | 211 | 3.0 | 3.0 | 0.00 | 0.62 | 0.62 | 97 | 1008.4 |
| 20260506181006 | 43 | 224 | 3.0 | 3.0 | 0.00 | 0.62 | 0.62 | 97 | 1008.1 |
| 20260506180502 | 43 | 204 | 2.0 | 2.0 | 0.00 | 0.62 | 0.62 | 97 | 1008.3 |
| 20260506175959 | 43 | 180 | 2.0 | 2.0 | 0.00 | 0.62 | 0.62 | 97 | 1008.0 |
| 20260506175455 | 44 | 205 | 2.0 | 2.0 | 0.00 | 0.62 | 0.62 | 97 | 1008.0 |
| 20260506174952 | 44 | 204 | 2.0 | 2.0 | 0.00 | 0.62 | 0.62 | 97 | 1007.9 |
| 20260506174450 | 44 | 191 | 1.0 | 2.0 | 0.00 | 0.62 | 0.62 | 97 | 1007.7 |
| 20260506173946 | 44 | 183 | 1.0 | 1.0 | 0.00 | 0.62 | 0.62 | 97 | 1007.6 |
| 20260506173444 | 44 | 174 | 0.0 | 1.0 | 0.00 | 0.62 | 0.62 | 97 | 1007.7 |
| 20260506172940 | 44 | 164 | 1.0 | 2.0 | 0.00 | 0.62 | 0.62 | 97 | 1007.9 |
| 20260506172438 | 44 | 189 | 1.0 | 1.0 | 0.00 | 0.62 | 0.62 | 97 | 1007.8 |
| 20260506171934 | 44 | 163 | 0.0 | 0.0 | 0.00 | 0.62 | 0.62 | 97 | 1007.6 |
| 20260506171432 | 44 | 172 | 0.0 | 1.0 | 0.00 | 0.62 | 0.62 | 97 | 1007.7 |
| 20260506170930 | 44 | 181 | 1.0 | 1.0 | 0.05 | 0.62 | 0.62 | 97 | 1007.5 |
| 20260506170425 | 44 | 182 | 0.0 | 1.0 | 0.05 | 0.62 | 0.62 | 97 | 1007.7 |
| 20260506165919 | 43 | 175 | 0.0 | 1.0 | 0.00 | 0.61 | 0.61 | 97 | 1007.6 |
| 20260506165417 | 44 | 164 | 0.0 | 0.0 | 0.00 | 0.61 | 0.61 | 97 | 1007.5 |
| 20260506164913 | 44 | 155 | 0.0 | 0.0 | 0.00 | 0.61 | 0.61 | 97 | 1007.5 |
| 20260506164409 | 44 | 147 | 0.0 | 0.0 | 0.00 | 0.61 | 0.61 | 97 | 1007.4 |
| 20260506163908 | 43 | 209 | 1.0 | 1.0 | 0.00 | 0.61 | 0.61 | 97 | 1007.6 |
| 20260506163401 | 43 | 156 | 0.0 | 0.0 | 0.00 | 0.61 | 0.61 | 97 | 1007.8 |
| 20260506162857 | 43 | 148 | 0.0 | 0.0 | 0.00 | 0.61 | 0.61 | 97 | 1007.8 |
| 20260506162355 | 43 | 146 | 1.0 | 1.0 | 0.00 | 0.61 | 0.61 | 97 | 1007.5 |
| 20260506161852 | 43 | 174 | 0.0 | 1.0 | 0.00 | 0.61 | 0.61 | 97 | 1007.7 |
| 20260506161350 | 44 | 177 | 0.0 | 0.0 | 0.07 | 0.61 | 0.61 | 97 | 1007.6 |
| 20260506160847 | 43 | 144 | 0.0 | 0.0 | 0.07 | 0.61 | 0.61 | 97 | 1007.8 |
| 20260506160344 | 43 | 134 | 0.0 | 1.0 | 0.05 | 0.60 | 0.60 | 97 | 1007.9 |
| 20260506155842 | 43 | 168 | 0.0 | 0.0 | 0.05 | 0.60 | 0.60 | 97 | 1008.0 |
| 20260506155339 | 43 | 127 | 1.0 | 1.0 | 0.07 | 0.59 | 0.59 | 97 | 1007.9 |
| 20260506153456 | 43 | 142 | 0.0 | 0.0 | 0.00 | 0.57 | 0.57 | 97 | 1008.2 |
| 20260506152954 | 43 | 145 | 0.0 | 0.0 | 0.00 | 0.57 | 0.57 | 97 | 1007.9 |
| 20260506152450 | 43 | 158 | 0.0 | 0.0 | 0.07 | 0.57 | 0.57 | 97 | 1007.9 |
| 20260506151949 | 43 | 140 | 0.0 | 0.0 | 0.07 | 0.57 | 0.57 | 97 | 1007.7 |
| 20260506151446 | 43 | 147 | 0.0 | 0.0 | 0.00 | 0.56 | 0.56 | 97 | 1008.0 |
| 20260506150943 | 43 | 129 | 0.0 | 1.0 | 0.00 | 0.56 | 0.56 | 97 | 1007.6 |
| 20260506150439 | 42 | 138 | 0.0 | 0.0 | 0.00 | 0.56 | 0.56 | 97 | 1007.8 |
| 20260506145936 | 43 | 138 | 0.0 | 0.0 | 0.00 | 0.56 | 0.56 | 97 | 1007.5 |
| 20260506145432 | 43 | 146 | 0.0 | 0.0 | 0.00 | 0.56 | 0.56 | 97 | 1007.3 |
| 20260506144930 | 43 | 148 | 0.0 | 0.0 | 0.05 | 0.56 | 0.56 | 97 | 1007.5 |
| 20260506144427 | 43 | 133 | 0.0 | 1.0 | 0.05 | 0.56 | 0.56 | 97 | 1007.4 |
| 20260506143925 | 43 | 128 | 0.0 | 0.0 | 0.05 | 0.56 | 0.56 | 97 | 1007.1 |
| 20260506143422 | 43 | 147 | 0.0 | 0.0 | 0.00 | 0.55 | 0.55 | 97 | 1007.1 |
| 20260506142920 | 42 | 123 | 1.0 | 1.0 | 0.07 | 0.55 | 0.55 | 97 | 1007.5 |
| 20260506142418 | 43 | 132 | 0.0 | 0.0 | 0.07 | 0.55 | 0.55 | 97 | 1007.3 |
| 20260506141915 | 42 | 150 | 0.0 | 0.0 | 0.05 | 0.54 | 0.54 | 97 | 1007.4 |
| 20260506141413 | 42 | 146 | 0.0 | 0.0 | 0.07 | 0.53 | 0.53 | 97 | 1007.6 |
| 20260506140911 | 42 | 146 | 0.0 | 0.0 | 0.07 | 0.53 | 0.53 | 97 | 1007.1 |
| 20260506140408 | 42 | 132 | 0.0 | 1.0 | 0.00 | 0.52 | 0.52 | 97 | 1007.6 |
| 20260506135905 | 42 | 140 | 0.0 | 1.0 | 0.05 | 0.52 | 0.52 | 97 | 1007.4 |
| 20260506135402 | 42 | 140 | 0.0 | 0.0 | 0.05 | 0.52 | 0.52 | 97 | 1007.6 |
| 20260506134858 | 42 | 137 | 0.0 | 0.0 | 0.00 | 0.51 | 0.51 | 97 | 1007.4 |
| 20260506134354 | 42 | 158 | 1.0 | 1.0 | 0.07 | 0.51 | 0.51 | 97 | 1007.6 |
| 20260506133851 | 42 | 148 | 0.0 | 0.0 | 0.14 | 0.51 | 0.51 | 97 | 1007.7 |
| 20260506133348 | 42 | 118 | 0.0 | 1.0 | 0.12 | 0.50 | 0.50 | 97 | 1007.8 |
| 20260506132844 | 42 | 129 | 0.0 | 0.0 | 0.05 | 0.49 | 0.49 | 97 | 1007.7 |
| 20260506132342 | 42 | 145 | 0.0 | 0.0 | 0.07 | 0.48 | 0.48 | 97 | 1007.9 |
| 20260506131840 | 42 | 45 | 1.0 | 1.0 | 0.12 | 0.48 | 0.48 | 97 | 1007.7 |
| 20260506131336 | 42 | 129 | 1.0 | 1.0 | 0.17 | 0.47 | 0.47 | 97 | 1007.9 |
| 20260506130834 | 42 | 143 | 0.0 | 0.0 | 0.19 | 0.46 | 0.46 | 97 | 1007.5 |
| 20260506130330 | 42 | 140 | 1.0 | 1.0 | 0.17 | 0.45 | 0.45 | 97 | 1007.6 |
| 20260506125828 | 42 | 65 | 1.0 | 2.0 | 0.17 | 0.43 | 0.43 | 97 | 1007.7 |
| 20260506125326 | 42 | 122 | 0.0 | 1.0 | 0.17 | 0.41 | 0.41 | 97 | 1007.9 |
| 20260506124824 | 42 | 99 | 1.0 | 1.0 | 0.26 | 0.40 | 0.40 | 97 | 1007.7 |
| 20260506124320 | 42 | 142 | 1.0 | 1.0 | 0.19 | 0.38 | 0.38 | 97 | 1007.7 |
| 20260506123818 | 42 | 144 | 0.0 | 1.0 | 0.12 | 0.36 | 0.36 | 97 | 1007.8 |
| 20260506123316 | 42 | 151 | 0.0 | 0.0 | 0.12 | 0.35 | 0.35 | 97 | 1007.7 |
| 20260506122813 | 42 | 130 | 1.0 | 2.0 | 0.12 | 0.33 | 0.33 | 97 | 1007.6 |
| 20260506122310 | 42 | 140 | 0.0 | 0.0 | 0.12 | 0.33 | 0.33 | 97 | 1007.4 |
| 20260506121808 | 42 | 139 | 0.0 | 0.0 | 0.12 | 0.32 | 0.32 | 97 | 1007.6 |
| 20260506121305 | 42 | 152 | 0.0 | 0.0 | 0.12 | 0.31 | 0.31 | 97 | 1007.6 |
| 20260506120802 | 42 | 151 | 0.0 | 0.0 | 0.12 | 0.30 | 0.30 | 97 | 1007.3 |
| 20260506120300 | 42 | 91 | 1.0 | 2.0 | 0.07 | 0.29 | 0.29 | 97 | 1007.6 |
| 20260506115757 | 42 | 117 | 2.0 | 2.0 | 0.05 | 0.28 | 0.28 | 97 | 1007.5 |
| 20260506115255 | 42 | 35 | 2.0 | 2.0 | 0.05 | 0.28 | 0.28 | 97 | 1007.4 |
| 20260506114753 | 42 | 93 | 2.0 | 2.0 | 0.00 | 0.27 | 0.27 | 97 | 1007.4 |
| 20260506114250 | 42 | 98 | 0.0 | 1.0 | 0.00 | 0.27 | 0.27 | 97 | 1007.7 |
| 20260506113749 | 42 | 141 | 1.0 | 1.0 | 0.07 | 0.27 | 0.27 | 97 | 1007.6 |
| 20260506113246 | 42 | 138 | 1.0 | 1.0 | 0.07 | 0.27 | 0.27 | 97 | 1007.6 |
| 20260506112742 | 42 | 140 | 0.0 | 1.0 | 0.05 | 0.26 | 0.26 | 97 | 1007.6 |
| 20260506112240 | 42 | 30 | 2.0 | 2.0 | 0.05 | 0.26 | 0.26 | 97 | 1007.7 |
| 20260506111737 | 42 | 131 | 1.0 | 1.0 | 0.07 | 0.25 | 0.25 | 97 | 1007.9 |
| 20260506111235 | 42 | 86 | 1.0 | 1.0 | 0.14 | 0.25 | 0.25 | 97 | 1008.0 |
| 20260506110732 | 42 | 112 | 1.0 | 1.0 | 0.12 | 0.24 | 0.24 | 97 | 1008.0 |
| 20260506110230 | 42 | 122 | 1.0 | 2.0 | 0.12 | 0.23 | 0.23 | 97 | 1008.2 |
| 20260506105726 | 42 | 143 | 0.0 | 0.0 | 0.19 | 0.22 | 0.22 | 97 | 1007.8 |
| 20260506105223 | 42 | 151 | 0.0 | 1.0 | 0.12 | 0.21 | 0.21 | 97 | 1008.2 |
| 20260506104721 | 42 | 141 | 0.0 | 0.0 | 0.12 | 0.20 | 0.20 | 97 | 1007.6 |
| 20260506104218 | 42 | 147 | 0.0 | 0.0 | 0.05 | 0.19 | 0.19 | 97 | 1007.9 |
| 20260506103715 | 42 | 149 | 0.0 | 0.0 | 0.07 | 0.18 | 0.18 | 97 | 1007.6 |
| 20260506103212 | 42 | 145 | 0.0 | 0.0 | 0.07 | 0.18 | 0.18 | 97 | 1007.5 |
| 20260506102710 | 42 | 135 | 0.0 | 1.0 | 0.05 | 0.17 | 0.17 | 97 | 1007.8 |
| 20260506102208 | 42 | 148 | 0.0 | 0.0 | 0.05 | 0.17 | 0.17 | 97 | 1007.7 |
| 20260506101704 | 42 | 146 | 0.0 | 0.0 | 0.00 | 0.16 | 0.16 | 97 | 1007.5 |
| 20260506101201 | 42 | 146 | 0.0 | 0.0 | 0.00 | 0.16 | 0.16 | 97 | 1007.5 |
| 20260506100659 | 42 | 147 | 0.0 | 0.0 | 0.00 | 0.16 | 0.16 | 97 | 1007.4 |
| 20260506100157 | 42 | 144 | 0.0 | 0.0 | 0.00 | 0.16 | 0.16 | 97 | 1007.5 |
| 20260506095655 | 42 | 147 | 0.0 | 0.0 | 0.07 | 0.16 | 0.16 | 97 | 1007.6 |
| 20260506095151 | 42 | 146 | 0.0 | 0.0 | 0.12 | 0.16 | 0.16 | 97 | 1007.4 |
| 20260506094649 | 42 | 142 | 0.0 | 0.0 | 0.12 | 0.15 | 0.15 | 97 | 1007.6 |
| 20260506094147 | 42 | 145 | 0.0 | 0.0 | 0.07 | 0.14 | 0.14 | 97 | 1007.5 |
| 20260506093645 | 42 | 127 | 0.0 | 1.0 | 0.14 | 0.14 | 0.14 | 97 | 1007.8 |
| 20260506093142 | 42 | 145 | 0.0 | 0.0 | 0.07 | 0.13 | 0.13 | 97 | 1007.7 |
| 20260506092640 | 42 | 143 | 0.0 | 0.0 | 0.05 | 0.12 | 0.12 | 97 | 1007.8 |
| 20260506092137 | 42 | 147 | 0.0 | 0.0 | 0.05 | 0.12 | 0.12 | 97 | 1008.1 |
| 20260506091635 | 42 | 115 | 0.0 | 0.0 | 0.00 | 0.11 | 0.11 | 96 | 1008.1 |
| 20260506091132 | 42 | 139 | 0.0 | 0.0 | 0.00 | 0.11 | 0.11 | 97 | 1008.2 |
| 20260506090630 | 42 | 125 | 1.0 | 1.0 | 0.07 | 0.11 | 0.11 | 97 | 1008.5 |
| 20260506090126 | 43 | 150 | 1.0 | 1.0 | 0.07 | 0.11 | 0.11 | 97 | 1008.1 |
| 20260506085623 | 42 | 172 | 2.0 | 2.0 | 0.05 | 0.10 | 0.10 | 96 | 1008.6 |
| 20260506085119 | 42 | 79 | 2.0 | 2.0 | 0.05 | 0.10 | 0.10 | 96 | 1008.4 |
| 20260506084616 | 42 | 127 | 0.0 | 1.0 | 0.07 | 0.09 | 0.09 | 96 | 1008.1 |
| 20260506084112 | 43 | 109 | 0.0 | 1.0 | 0.12 | 0.09 | 0.09 | 96 | 1008.5 |
| 20260506083610 | 43 | 116 | 1.0 | 2.0 | 0.05 | 0.08 | 0.08 | 96 | 1008.3 |
| 20260506083107 | 43 | 77 | 2.0 | 3.0 | 0.07 | 0.07 | 0.07 | 96 | 1008.1 |
| 20260506082603 | 43 | 37 | 2.0 | 3.0 | 0.07 | 0.07 | 0.07 | 96 | 1007.8 |
| 20260506082059 | 44 | 105 | 1.0 | 2.0 | 0.05 | 0.06 | 0.06 | 96 | 1008.4 |
| 20260506081558 | 45 | 175 | 1.0 | 1.0 | 0.12 | 0.06 | 0.06 | 96 | 1008.0 |
| 20260506081055 | 45 | 130 | 0.0 | 1.0 | 0.12 | 0.05 | 0.05 | 97 | 1008.1 |
| 20260506080552 | 46 | 92 | 2.0 | 3.0 | 0.05 | 0.04 | 0.04 | 97 | 1008.2 |
| 20260506073033 | 46 | 122 | 1.0 | 1.0 | 0.00 | 0.01 | 0.01 | 97 | 1007.9 |
| 20260506072530 | 46 | 148 | 0.0 | 0.0 | 0.00 | 0.01 | 0.01 | 96 | 1007.7 |
| 20260506072027 | 46 | 145 | 0.0 | 0.0 | 0.00 | 0.01 | 0.01 | 96 | 1007.8 |
| 20260506071525 | 46 | 134 | 0.0 | 0.0 | 0.00 | 0.01 | 0.01 | 96 | 1007.7 |
| 20260506071022 | 46 | 148 | 0.0 | 0.0 | 0.00 | 0.01 | 0.01 | 96 | 1007.7 |
| 20260506070520 | 46 | 149 | 0.0 | 0.0 | 0.00 | 0.01 | 0.01 | 96 | 1007.8 |
| 20260506062457 | 47 | 142 | 0.0 | 0.0 | 0.00 | 0.01 | 0.01 | 96 | 1008.6 |
| 20260506061953 | 47 | 145 | 0.0 | 0.0 | 0.00 | 0.01 | 0.01 | 96 | 1008.7 |
| 20260506061449 | 47 | 145 | 0.0 | 0.0 | 0.00 | 0.01 | 0.01 | 96 | 1008.6 |
| 20260506060947 | 47 | 146 | 0.0 | 0.0 | 0.00 | 0.01 | 0.01 | 96 | 1008.6 |
| 20260506060445 | 47 | 146 | 0.0 | 0.0 | 0.00 | 0.01 | 0.01 | 96 | 1008.7 |
| 20260506050914 | 47 | 145 | 0.0 | 0.0 | 0.00 | 0.00 | 0.00 | 96 | 1009.4 |
| 20260506050412 | 47 | 168 | 0.0 | 0.0 | 0.00 | 0.00 | 0.00 | 96 | 1009.4 |
| 20260506044902 | 47 | 140 | 0.0 | 0.0 | 0.00 | 0.00 | 0.00 | 96 | 1009.8 |
| 20260506044400 | 47 | 156 | 0.0 | 0.0 | 0.00 | 0.00 | 0.00 | 96 | 1009.5 |
| 20260506043857 | 46 | 143 | 0.0 | 0.0 | 0.00 | 0.00 | 0.00 | 96 | 1009.4 |
| 20260506043354 | 46 | 147 | 0.0 | 0.0 | 0.00 | 0.00 | 0.00 | 96 | 1009.4 |
| 20260506042852 | 46 | 147 | 0.0 | 0.0 | 0.00 | 0.00 | 0.00 | 96 | 1009.5 |
| 20260506042351 | 46 | 142 | 0.0 | 0.0 | 0.00 | 0.00 | 0.00 | 96 | 1009.7 |
| 20260506041849 | 46 | 150 | 0.0 | 0.0 | 0.00 | 0.00 | 0.00 | 96 | 1009.4 |
| 20260506041346 | 46 | 150 | 0.0 | 0.0 | 0.00 | 0.00 | 0.00 | 96 | 1009.7 |
| 20260506040843 | 46 | 149 | 0.0 | 0.0 | 0.00 | 0.00 | 0.00 | 95 | 1009.6 |
| 20260506040341 | 46 | 149 | 0.0 | 0.0 | 0.00 | 0.00 | 0.00 | 95 | 1009.7 |
| 20260506035836 | 46 | 149 | 0.0 | 0.0 | 0.00 | 0.29 | 0.29 | 95 | 1009.4 |
| 20260506035334 | 46 | 149 | 0.0 | 0.0 | 0.00 | 0.29 | 0.29 | 95 | 1009.5 |
| 20260506034831 | 46 | 149 | 0.0 | 0.0 | 0.00 | 0.29 | 0.29 | 95 | 1009.7 |
| 20260506034328 | 46 | 149 | 0.0 | 0.0 | 0.07 | 0.29 | 0.29 | 95 | 1009.6 |
| 20260506033825 | 46 | 145 | 0.0 | 0.0 | 0.19 | 0.29 | 0.29 | 95 | 1009.4 |
| 20260506033322 | 46 | 150 | 0.0 | 0.0 | 0.17 | 0.28 | 0.28 | 95 | 1010.1 |
| 20260506032819 | 46 | 158 | 0.0 | 0.0 | 0.17 | 0.26 | 0.26 | 95 | 1010.0 |
| 20260506032316 | 46 | 154 | 0.0 | 0.0 | 0.19 | 0.25 | 0.25 | 95 | 1009.9 |
| 20260506031813 | 46 | 146 | 0.0 | 0.0 | 0.12 | 0.23 | 0.23 | 95 | 1010.3 |